Zurück zum Katalog

COSMOS 1479

AktivNavigationLEO
NORAD 14177·PAYLOAD·🇷🇺 Russia

Gestartet Jul 6, 1983 von Plesetsk Cosmodrome

Loading…

Nächste Überflüge (nächste 24 Stunden)

TLE

AktuellSource: Space-Track

Epoche: Sep 14, 2026, 06:49 UTC

1 14177U 83069G   26257.28454301 -.00000010  00000-0  38784-4 0  9991
2 14177  74.0296   5.4402 0023026 149.1391 238.8333 12.46105268964808

Verfolge COSMOS 1479 in Echtzeit mit AllMySat

Download on the App Store